Grand Junction, CO

6:11 PM MST on November 17, 2019 (GMT -0700)
Walker

Weather History for KGJT - September, 2019

Change the Weather History Date:

Friday, September 27, 2019

  Actual Average Record
Temperature  
Mean Temperature 70 °F 61 °F  
Max Temperature 84 °F 75 °F 90 °F (2010)
Min Temperature 55 °F 47 °F 28 °F (1908)
Degree Days  
Heating Degree Days 0 5  
Month to date heating degree days 30 55  
Since 1 July heating degree days 30 58  
Cooling Degree Days 5 1  
Month to date cooling degree days 151 100  
Year to date cooling degree days 1272 1119  
Growing Degree Days 20 (Base 50)    
Moisture  
Dew Point 42 °F    
Average Humidity 36    
Maximum Humidity 51    
Minimum Humidity 20    
Precipitation  
Precipitation 0.02 in 0.03 in 0.71 in (1982)
Month to date precipitation 0.26 1.07  
Year to date precipitation 7.12 6.92  
Snow  
Snow 0.00 in 0.00 in 0.00 in (2018)
Month to date snowfall 0.0 0.0  
Since 1 July snowfall 0.0 0.0  
Since 1 September snowfall 0.0 0.0  
Snow Depth 0.00 in    
Sea Level Pressure  
Sea Level Pressure 29.63 in    
Wind  
Wind Speed 7 mph (ENE)    
Max Wind Speed 22 mph    
Max Gust Speed 29 mph    
Visibility 10 miles    
Events Rain    
T = Trace of Precipitation, MM = Missing Value Source: NWS Daily Summary

Daily Weather History Graph

Daily Weather History Graph

Search for Another Location

Airport or City:

Astronomy

Sep. 27, 2019 Rise Set
Actual Time 7:06 AM MDT 7:03 PM MDT
Civil Twilight 6:39 AM MDT 7:29 PM MDT
Nautical Twilight 6:08 AM MDT 8:00 PM MDT
Astronomical Twilight 5:37 AM MDT 8:32 PM MDT
Moon 5:32 AM MDT (9/27) 6:54 PM MDT (9/27)
Length of Visible Light 12h 50m
Length of Day
11h 57m
Waning Crescent, 2% of the Moon is Illuminated
Sep 27
Waning Crescent
Sep 28
New
Oct 5
First Quarter
Oct 13
Full
Oct 21
Last Quarter

Hourly Weather History & Observations

Time (MDT) Temp. Dew Point Humidity Pressure Visibility Wind Dir Wind Speed Gust Speed Precip Events Conditions
12:53 AM 64.9 °F 39.9 °F 40% 29.69 in 10.0 mi Calm Calm - N/A   Scattered Clouds
1:53 AM 64.9 °F 37.9 °F 37% 29.68 in 10.0 mi ENE 5.8 mph - N/A   Scattered Clouds
2:53 AM 63.0 °F 39.0 °F 41% 29.67 in 10.0 mi ESE 8.1 mph - N/A   Clear
3:53 AM 62.1 °F 39.0 °F 43% 29.67 in 10.0 mi East 6.9 mph - N/A   Partly Cloudy
4:53 AM 60.1 °F 39.0 °F 46% 29.68 in 10.0 mi East 8.1 mph - N/A   Clear
5:53 AM 60.1 °F 41.0 °F 49% 29.68 in 10.0 mi East 8.1 mph - N/A   Clear
6:53 AM 57.0 °F 39.9 °F 53% 29.70 in 10.0 mi ESE 8.1 mph - N/A   Clear
7:53 AM 62.1 °F 41.0 °F 46% 29.71 in 10.0 mi ESE 8.1 mph - N/A   Clear
8:53 AM 66.9 °F 43.0 °F 42% 29.71 in 10.0 mi SE 10.4 mph - N/A   Clear
9:53 AM 68.0 °F 46.0 °F 45% 29.72 in 10.0 mi WSW 4.6 mph - N/A   Clear
10:53 AM 73.0 °F 45.0 °F 37% 29.69 in 10.0 mi Variable 3.5 mph - N/A   Clear
11:53 AM 75.9 °F 44.1 °F 32% 29.67 in 10.0 mi Variable 3.5 mph - N/A   Clear
12:53 PM 75.9 °F 44.1 °F 32% 29.65 in 10.0 mi Calm Calm - N/A   Clear
1:53 PM 80.1 °F 44.1 °F 28% 29.60 in 10.0 mi West 6.9 mph - N/A   Clear
2:53 PM 81.0 °F 43.0 °F 26% 29.58 in 10.0 mi WNW 9.2 mph - N/A   Clear
3:53 PM 82.0 °F 42.1 °F 24% 29.55 in 10.0 mi WNW 8.1 mph - N/A   Clear
4:53 PM 84.0 °F 39.0 °F 20% 29.53 in 10.0 mi WSW 16.1 mph 25.3 mph N/A   Clear
5:53 PM 82.0 °F 37.0 °F 20% 29.54 in 10.0 mi WNW 9.2 mph - N/A   Clear
6:53 PM 75.9 °F 39.0 °F 26% 29.55 in 10.0 mi NW 8.1 mph - N/A   Clear
7:53 PM 75.0 °F 37.9 °F 26% 29.55 in 10.0 mi North 4.6 mph - N/A   Clear
8:53 PM 73.0 °F 39.9 °F 30% 29.57 in 10.0 mi Variable 4.6 mph - N/A   Mostly Cloudy
9:53 PM 71.1 °F 41.0 °F 34% 29.56 in 10.0 mi NE 4.6 mph - 0.00 in   Mostly Cloudy
10:53 PM 72.0 °F 39.0 °F 30% 29.57 in 10.0 mi NNE 3.5 mph - 0.00 in Rain Light Rain
11:53 PM 64.9 °F 52.0 °F 63% 29.61 in 10.0 mi East 8.1 mph - 0.02 in Rain Light Rain